CAPE
0 0 12 0 22 31 10 2 29 57 84 134 207 152 127 117 161 123 160 75 24 5 0 0 0 0 0 0 0 1 0 7 14 13 24 23 24 17 30 14 0 0 0
0 0 0 0 51 12 36 3 12 10 22 98 159 146 142 143 148 113 113 19 9 8 0 0 1 0 0 0 1 3 10 6 12 15 17 7 22 3 0 11 2 0 0
0 0 0 0 14 37 95 56 6 2 15 55 82 115 151 178 153 107 80 35 7 1 0 0 0 0 0 0 2 1 0 8 16 13 10 1 0 1 0 0 0 0 0
0 0 0 0 0 0 94 71 26 34 47 27 39 57 89 114 128 119 63 25 7 0 4 8 0 5 4 7 3 4 0 0 2 1 0 0 0 0 0 0 0 0 0
0 0 0 0 0 0 23 103 61 66 17 58 62 61 85 90 52 43 41 28 29 11 5 1 9 14 8 3 0 0 0 0 0 0 0 0 0 0 0 0 0 0 0
0 0 0 0 0 2 4 6 116 20 0 0 0 12 8 27 17 41 31 23 22 15 1 3 5 2 0 0 0 0 0 0 0 0 0 0 0 0 0 0 0 0 0
0 0 0 0 0 3 2 0 4 0 0 0 0 0 0 0 16 3 26 22 21 13 0 0 1 0 0 1 0 0 0 0 0 0 0 0 0 0 0 0 0 0 0
0 0 0 0 0 0 1 0 0 0 0 0 0 0 0 0 0 3 5 4 1 0 0 0 0 0 0 0 0 0 0 0 0 0 0 0 0 0 0 0 0 0 0
0 0 0 0 0 0 0 0 0 0 0 0 0 0 0 0 0 0 0 0 0 1 0 0 0 0 0 0 0 0 0 0 0 0 0 0 0 0 0 0 0 0 0
0 0 0 0 0 0 0 0 0 0 0 0 0 0 0 0 0 0 0 0 0 0 0 0 0 0 0 0 0 0 0 0 0 0 0 0 0 0 0 0 0 0 0
0 0 0 0 0 0 0 0 0 0 0 0 0 0 0 0 0 0 0 0 0 0 0 0 0 0 0 0 0 0 0 0 0 0 0 0 0 0 0 0 0 0 0
0 0 0 0 0 0 0 0 0 7 2 0 0 0 0 0 0 0 0 0 0 0 0 0 0 0 0 0 0 0 0 0 0 0 0 0 0 0 0 0 0 0 0
0 0 0 0 0 0 0 0 0 0 65 0 0 0 0 0 0 0 0 0 0 0 0 0 0 0 0 0 0 0 0 0 0 0 0 0 0 0 0 0 0 0 0
0 0 0 0 0 0 0 0 0 0 3 2 0 0 0 0 0 0 0 0 0 0 0 0 0 0 0 0 0 0 0 0 0 0 0 0 0 0 0 0 0 0 0
0 0 0 0 0 0 0 0 0 0 0 0 0 0 0 0 0 0 0 0 0 0 0 0 0 0 0 0 0 0 0 0 0 0 0 0 0 0 0 0 0 0 0
0 0 0 0 0 0 0 0 0 0 0 0 0 0 0 0 0 0 0 0 0 0 0 0 0 0 0 0 0 0 0 0 0 0 0 0 0 0 0 0 0 0 0
0 0 0 0 0 0 0 0 0 0 0 0 0 0 0 0 0 0 0 0 0 0 0 0 0 0 0 0 0 0 0 0 0 0 0 0 0 0 0 0 0 0 0
0 0 0 0 0 0 0 0 0 0 0 0 0 0 0 0 0 0 0 0 0 0 0 0 0 0 0 0 0 0 0 0 0 0 0 0 0 0 0 0 0 0 0
0 0 0 0 0 0 0 0 0 0 0 0 0 0 0 0 0 0 0 0 0 0 0 0 0 0 0 0 0 0 0 0 0 0 0 0 0 0 0 0 0 0 0
1 0 0 0 0 0 0 0 0 0 0 0 0 0 0 0 0 0 0 0 0 0 0 0 0 0 0 0 0 0 0 0 0 0 0 0 0 0 0 0 0 0 0
81 0 0 0 0 0 0 0 0 0 0 0 0 0 0 0 0 0 0 0 0 0 0 0 0 0 0 0 0 0 0 0 0 0 0 0 0 0 0 0 0 0 0
257 85 0 0 0 0 0 0 0 0 0 0 0 0 0 0 0 0 0 0 0 0 0 0 0 0 0 0 0 0 0 0 0 0 0 0 0 0 0 0 0 0 0
274 284 71 0 0 0 0 0 0 0 0 0 0 0 0 0 0 0 0 0 0 0 0 0 0 0 0 0 0 0 0 0 0 0 0 0 0 0 0 0 0 0 0
362 322 283 59 0 0 0 0 0 0 0 0 0 0 0 0 0 0 0 0 0 0 0 0 0 0 0 0 0 0 0 0 0 0 0 0 0 0 0 0 0 0 0
136 331 249 246 119 13 9 1 0 0 0 0 0 0 0 0 0 0 0 0 0 0 0 0 0 0 0 0 0 0 0 0 0 0 0 0 0 0 0 0 0 0 0
185 77 332 284 241 179 120 88 55 5 0 0 0 0 0 0 0 0 0 0 0 0 0 0 0 0 0 0 0 0 0 0 0 0 0 0 0 0 0 0 0 0 0
CIN
-0 -0 -47 -0 -40 -49 -36 -65 -39 -29 -28 -30 -39 -37 -50 -43 -31 -33 -38 -59 -76 -113 -3 -0 -0 -0 -0 -0 -0 -24 -12 -27 -14 -13 -18 -8 -8 -8 -12 -42 -0 -0 -0
-0 -0 -0 -0 -22 -53 -42 -53 -80 -83 -34 -35 -37 -48 -37 -42 -44 -39 -47 -80 -128 -139 -0 -0 -0 -0 -0 -0 -29 -39 -38 -41 -41 -36 -10 -9 -33 -50 -3 -56 -19 -0 -0
-0 -0 -0 -0 -24 -36 -33 -39 -67 -78 -73 -40 -41 -52 -46 -36 -36 -57 -81 -98 -121 -112 -0 -0 -0 -8 -0 -0 -50 -38 -70 -51 -38 -54 -61 -53 -0 -100 -0 -0 -0 -0 -0
-0 -0 -0 -0 -0 -0 -30 -26 -40 -37 -36 -44 -42 -30 -31 -27 -33 -31 -64 -80 -94 -0 -110 -94 -0 -39 -61 -54 -52 -62 -0 -0 -54 -36 -0 -0 -0 -0 -0 -0 -0 -0 -0
-0 -0 -0 -0 -0 -0 -16 -20 -22 -27 -11 -32 -23 -20 -24 -16 -16 -21 -36 -58 -64 -65 -61 -56 -61 -40 -46 -48 -14 -0 -0 -0 -0 -0 -0 -0 -0 -0 -0 -0 -0 -0 -0
-0 -0 -0 -0 -0 -22 -10 -14 -16 -47 -0 -0 -0 -37 -41 -42 -44 -28 -7 -2 -1 -17 -0 -41 -79 -50 -0 -0 -0 -0 -0 -0 -0 -0 -0 -0 -0 -0 -0 -0 -0 -0 -0
-0 -0 -0 -0 -0 -53 -9 -0 -10 -0 -0 -0 -0 -0 -0 -0 -62 -66 -52 -29 -22 -48 -3 -0 -37 -10 -0 -101 -0 -0 -0 -0 -0 -0 -0 -0 -0 -0 -0 -0 -0 -0 -0
-0 -0 -0 -0 -0 -0 -53 -0 -0 -0 -0 -0 -0 -0 -0 -0 -0 -36 -55 -58 -27 -0 -0 -0 -0 -0 -0 -0 -0 -0 -0 -0 -0 -0 -0 -0 -0 -0 -0 -0 -0 -0 -0
-0 -0 -0 -0 -0 -0 -0 -0 -0 -0 -0 -0 -0 -0 -0 -0 -0 -0 -0 -0 -0 -72 -8 -0 -0 -0 -0 -0 -0 -0 -0 -0 -0 -0 -0 -0 -0 -0 -0 -0 -0 -0 -0
-0 -0 -0 -0 -0 -0 -0 -0 -0 -0 -0 -0 -0 -0 -0 -0 -0 -0 -0 -0 -0 -0 -0 -0 -0 -0 -0 -0 -0 -0 -0 -0 -0 -0 -0 -0 -0 -0 -0 -0 -0 -0 -0
-0 -0 -0 -0 -0 -0 -0 -0 -0 -0 -0 -0 -0 -0 -0 -0 -0 -0 -0 -0 -0 -0 -0 -0 -0 -0 -0 -0 -0 -0 -0 -0 -0 -0 -0 -0 -0 -0 -0 -0 -0 -0 -0
-0 -0 -0 -0 -0 -0 -0 -0 -0 -164 -59 -0 -0 -0 -0 -0 -0 -0 -0 -0 -0 -0 -0 -0 -0 -0 -0 -0 -0 -0 -0 -0 -0 -0 -0 -0 -0 -0 -0 -0 -0 -0 -0
-0 -0 -0 -0 -0 -0 -0 -0 -0 -0 -347 -1 -0 -0 -0 -0 -0 -0 -0 -0 -0 -0 -0 -0 -0 -0 -0 -0 -0 -0 -0 -0 -0 -0 -0 -0 -0 -0 -0 -0 -0 -0 -0
-0 -0 -0 -0 -0 -0 -0 -0 -0 -0 -450 -445 -0 -0 -0 -0 -0 -0 -0 -0 -0 -0 -0 -0 -0 -0 -0 -0 -0 -0 -0 -0 -0 -0 -0 -0 -0 -0 -0 -0 -0 -0 -0
-0 -0 -0 -0 -0 -0 -0 -0 -0 -0 -0 -0 -0 -0 -0 -0 -0 -0 -0 -0 -0 -0 -0 -0 -0 -0 -0 -0 -0 -0 -0 -0 -0 -0 -0 -0 -0 -0 -0 -0 -0 -0 -0
-0 -0 -0 -0 -0 -0 -0 -0 -0 -0 -0 -0 -0 -0 -0 -0 -0 -0 -0 -0 -0 -0 -0 -0 -0 -0 -0 -0 -0 -0 -0 -0 -0 -0 -0 -0 -0 -0 -0 -0 -0 -0 -0
-0 -0 -0 -0 -0 -0 -0 -0 -0 -0 -0 -0 -0 -0 -0 -0 -0 -0 -0 -0 -0 -0 -0 -0 -0 -0 -0 -0 -0 -0 -0 -0 -0 -0 -0 -0 -0 -0 -0 -0 -0 -0 -0
-0 -0 -0 -0 -0 -0 -0 -0 -0 -0 -0 -0 -0 -0 -0 -0 -0 -0 -0 -0 -0 -0 -0 -0 -0 -0 -0 -0 -0 -0 -0 -0 -0 -0 -0 -0 -0 -0 -0 -0 -0 -0 -0
-0 -0 -0 -0 -0 -0 -0 -0 -0 -0 -0 -0 -0 -0 -0 -0 -0 -0 -0 -0 -0 -0 -0 -0 -0 -0 -0 -0 -0 -0 -0 -0 -0 -0 -0 -0 -0 -0 -0 -0 -0 -0 -0
-261 -0 -0 -0 -0 -0 -0 -0 -0 -0 -0 -0 -0 -0 -0 -0 -0 -0 -0 -0 -0 -0 -0 -0 -0 -0 -0 -0 -0 -0 -0 -0 -0 -0 -0 -0 -0 -0 -0 -0 -0 -0 -0
-301 -10 -0 -0 -0 -0 -0 -0 -0 -0 -0 -0 -0 -0 -0 -0 -0 -0 -0 -0 -0 -0 -0 -0 -0 -0 -0 -0 -0 -0 -0 -0 -0 -0 -0 -0 -0 -0 -0 -0 -0 -0 -0
-216 -289 -0 -0 -0 -0 -0 -0 -0 -0 -0 -0 -0 -0 -0 -0 -0 -0 -0 -0 -0 -0 -0 -0 -0 -0 -0 -0 -0 -0 -0 -0 -0 -0 -0 -0 -0 -0 -0 -0 -0 -0 -0
-143 -197 -291 -0 -0 -0 -0 -0 -0 -0 -0 -0 -0 -0 -0 -0 -0 -0 -0 -0 -0 -0 -0 -0 -0 -0 -0 -0 -0 -0 -0 -0 -0 -0 -0 -0 -0 -0 -0 -0 -0 -0 -0
-112 -115 -165 -272 -0 -0 -0 -0 -0 -0 -0 -0 -0 -0 -0 -0 -0 -0 -0 -0 -0 -0 -0 -0 -0 -0 -0 -0 -0 -0 -0 -0 -0 -0 -0 -0 -0 -0 -0 -0 -0 -0 -0
-135 -76 -98 -141 -214 -276 -282 -29 -0 -0 -0 -0 -0 -0 -0 -0 -0 -0 -0 -0 -0 -0 -0 -0 -0 -0 -0 -0 -0 -0 -0 -0 -0 -0 -0 -0 -0 -0 -0 -0 -0 -0 -0
-95 -104 -74 -86 -122 -201 -217 -207 -209 -249 -0 -0 -0 -0 -0 -0 -0 -0 -0 -0 -0 -0 -0 -0 -0 -0 -0 -0 -0 -0 -0 -0 -0 -0 -0 -0 -0 -0 -0 -0 -0 -0 -0
Wind_Speed
17 18 18 19 19 20 23 23 24 25 26 26 27 26 5 7 9 15 13 8 6 6 6 7 9 9 9 5 7 2 8 9 9 10 16 26 32 34 27 28 27 26 25
18 19 19 20 21 23 25 25 25 23 25 26 27 27 30 12 23 18 24 7 8 10 9 10 12 9 6 3 6 5 8 7 7 16 21 17 22 32 31 28 27 27 23
19 20 20 20 22 22 24 27 26 27 27 27 24 29 31 30 18 14 6 5 6 10 2 2 6 7 5 3 8 21 17 15 17 13 13 9 14 29 27 26 26 24 20
20 21 21 21 21 22 24 26 27 27 27 25 23 25 29 28 27 9 2 2 6 13 17 4 5 7 7 23 25 28 26 23 19 3 10 21 29 28 26 24 20 17 8
20 21 21 22 23 23 24 25 24 23 25 24 19 25 26 25 25 12 14 4 6 7 2 9 7 11 36 32 27 24 22 33 32 31 31 30 29 27 24 16 13 8 8
20 20 22 23 24 22 24 25 25 26 4 20 29 30 29 26 30 29 31 29 29 29 25 25 36 39 34 31 26 22 28 34 32 31 27 28 26 22 15 13 10 8 11
21 20 21 24 24 25 25 26 26 26 27 28 29 30 31 30 31 33 34 34 32 31 34 41 39 36 31 27 23 21 25 31 29 26 24 22 18 17 13 10 8 12 15
21 21 22 24 25 26 26 26 26 27 27 26 29 30 32 30 32 31 32 33 34 35 38 38 35 32 30 27 27 20 10 7 5 8 15 12 10 10 9 11 14 15 19
21 22 22 24 26 26 27 27 26 26 27 26 27 28 29 29 31 32 32 33 34 34 35 34 33 32 30 29 28 20 9 5 8 11 12 12 13 14 14 16 17 21 24
23 23 22 23 26 26 27 27 26 25 25 26 27 27 27 28 28 30 30 32 31 32 32 32 31 30 29 27 23 15 8 7 9 10 12 13 14 16 18 20 19 21 23
24 24 24 22 24 24 24 25 25 25 25 25 25 25 25 26 27 28 28 29 27 27 26 26 25 24 20 14 16 15 11 10 10 12 14 16 18 19 18 20 20 20 20
25 23 24 23 21 21 21 21 21 23 25 25 25 25 25 26 26 26 25 25 25 24 24 23 21 21 17 12 11 10 9 10 11 14 16 16 17 18 20 20 21 22 23
24 23 22 23 20 20 20 22 22 24 25 25 24 22 23 24 25 25 24 23 24 23 22 21 19 15 12 8 8 9 10 11 12 13 13 15 18 18 18 20 22 23 23
21 17 19 20 19 19 18 19 21 24 25 25 22 21 20 21 22 23 22 19 18 19 19 17 14 10 7 6 7 9 11 10 10 9 12 15 17 18 21 22 24 25 24
19 12 14 15 15 15 15 16 18 21 24 23 22 19 18 19 19 20 20 17 15 14 12 10 8 7 6 5 5 6 7 8 9 10 12 15 19 21 23 24 25 24 24
12 11 13 12 9 8 9 9 2 12 20 21 18 17 16 16 16 18 19 16 15 14 10 8 7 8 7 6 4 4 6 7 8 10 14 16 19 20 23 23 22 23 25
11 8 10 11 9 8 6 6 8 3 1 12 17 13 13 13 14 15 18 17 15 9 7 6 6 6 2 2 4 5 5 7 8 11 14 16 18 19 18 19 21 22 24
15 11 10 9 9 6 7 8 7 9 10 9 4 6 2 11 14 14 15 12 8 8 7 7 4 1 1 1 2 4 5 7 9 11 12 14 16 16 17 18 19 20 23
16 15 11 8 11 8 5 5 6 8 10 9 6 6 6 4 10 11 14 10 10 9 9 5 5 4 3 3 3 4 5 6 8 10 12 12 13 14 15 16 18 19 21
15 15 13 12 9 10 7 6 6 6 8 10 10 10 6 5 6 10 12 9 8 8 7 5 6 5 5 4 4 4 5 6 8 9 8 11 12 12 13 15 17 20 21
12 13 15 13 13 11 11 10 9 8 7 9 9 9 11 10 9 11 13 11 10 9 9 8 7 7 5 4 2 2 3 4 6 5 8 9 10 10 12 15 17 19 20
10 11 14 14 13 13 12 11 11 11 11 9 9 10 13 11 12 14 14 14 11 10 11 10 10 8 7 6 4 4 2 1 2 4 7 8 9 10 10 14 17 19 21
10 10 11 13 14 15 14 15 14 14 14 14 13 11 13 13 13 13 14 12 12 9 13 12 13 10 9 7 5 3 2 1 3 5 4 6 8 8 10 14 16 19 22
10 10 11 12 14 15 16 16 15 16 17 17 16 16 15 15 16 14 13 12 10 6 8 10 9 9 7 6 4 2 3 2 3 4 5 6 7 9 11 13 17 20 23
15 11 12 11 13 14 15 16 16 18 18 18 17 17 17 15 14 13 11 11 10 8 8 8 7 7 6 5 3 2 2 2 3 4 6 6 7 9 11 14 17 20 23
19 17 15 13 12 13 13 13 14 14 15 15 14 14 12 12 11 11 11 11 11 8 8 7 5 6 5 4 4 3 2 4 4 3 5 6 7 10 12 15 17 20 23
Wind_Direction
79 83 82 87 86 88 81 92 92 98 101 94 92 141 203 208 92 98 104 181 141 133 190 210 217 214 207 192 102 190 222 223 118 209 201 192 185 184 212 195 184 190 185
100 90 87 89 82 91 80 95 107 84 93 115 129 143 140 192 180 100 112 127 170 195 207 216 214 207 187 143 91 196 197 184 176 192 198 209 208 187 186 184 187 195 177
106 100 108 106 97 112 105 110 111 113 118 134 148 133 130 145 188 199 100 158 201 211 221 116 195 174 142 115 182 187 189 196 201 201 208 234 220 177 194 203 192 174 166
110 107 118 117 114 127 115 109 117 118 118 136 148 148 132 144 161 204 210 154 203 208 200 76 126 125 133 182 181 175 181 194 201 126 94 122 165 183 148 150 148 149 109
110 107 116 125 128 128 123 123 125 126 121 135 113 139 131 137 130 80 94 92 237 216 207 217 163 146 164 172 178 187 195 159 145 153 162 160 160 151 145 129 123 83 25
112 110 118 133 145 141 125 126 126 122 188 53 97 112 117 136 106 126 143 144 169 195 198 188 172 165 163 166 176 187 175 155 159 159 181 141 152 138 109 109 102 48 4
118 115 117 135 145 145 126 130 130 129 127 110 114 118 114 117 125 128 128 133 144 166 163 151 153 164 172 179 186 184 177 158 150 150 121 128 111 117 103 90 42 356 345
122 123 125 140 142 147 151 144 137 128 126 121 121 123 111 122 122 134 133 133 134 144 146 146 150 162 170 177 177 191 214 230 262 30 99 72 64 42 40 2 350 345 341
135 132 130 139 140 143 148 143 141 127 126 123 122 122 119 132 121 118 119 128 130 137 144 150 153 155 162 164 172 200 244 307 4 30 34 22 14 7 3 351 346 340 334
148 143 135 135 143 144 152 149 152 151 139 129 128 130 129 127 134 121 122 122 115 127 135 139 133 138 136 134 120 93 55 351 17 13 8 9 9 0 350 349 352 347 346
152 145 143 135 136 142 140 142 143 149 150 143 138 133 132 135 137 135 140 133 123 117 119 121 124 122 108 80 97 96 75 58 44 13 354 350 350 353 359 2 4 3 358
153 147 146 143 135 134 133 133 135 143 153 156 144 143 147 149 149 143 131 132 134 129 130 125 122 121 104 80 70 61 44 23 5 3 355 4 12 11 11 8 5 2 1
155 150 146 146 139 138 139 143 145 152 162 159 144 135 142 149 149 147 139 136 140 135 133 130 120 107 95 62 43 18 358 360 -0 360 15 17 13 14 14 9 6 5 7
155 146 143 143 140 140 139 143 149 157 163 159 146 142 138 139 144 145 140 125 120 124 120 113 109 96 65 58 359 350 350 0 10 35 28 22 15 10 4 2 359 0 2
155 149 151 146 141 141 143 147 152 162 166 163 160 151 143 144 147 146 143 133 118 115 105 97 96 92 89 72 45 46 46 37 48 39 23 11 2 360 1 3 3 5 9
157 153 158 158 157 148 143 140 303 150 166 169 162 157 154 154 147 152 154 145 135 126 114 117 119 128 132 126 89 60 38 30 24 18 13 8 5 3 360 3 12 12 9
176 174 163 164 169 172 169 165 162 285 248 162 172 165 165 161 160 159 163 160 156 143 145 144 144 146 102 66 25 16 11 13 23 9 4 3 6 4 15 14 12 12 13
181 188 185 172 170 184 184 185 184 179 178 177 202 180 167 173 173 167 166 163 174 184 187 182 181 265 268 330 355 5 6 7 2 2 6 7 13 17 17 16 19 19 17
187 186 197 210 180 184 194 194 200 197 192 193 210 251 278 289 183 180 172 184 191 198 199 220 293 306 307 307 322 339 353 356 3 6 7 17 21 20 23 28 24 24 22
190 197 206 213 227 200 209 203 201 214 208 206 210 214 235 258 239 197 193 203 212 216 213 259 279 287 288 294 314 335 351 4 3 8 20 15 22 28 23 21 23 18 15
190 202 207 234 220 222 210 213 213 206 217 211 214 219 211 223 227 214 208 221 229 236 245 254 271 274 271 275 288 316 341 347 355 12 14 23 29 36 32 25 20 13 17
203 202 203 211 241 231 237 230 236 224 222 237 243 224 210 228 232 223 220 222 234 261 262 259 263 258 252 244 246 271 282 338 35 42 30 36 36 34 32 14 11 18 15
228 229 217 225 235 250 253 256 250 246 246 241 240 248 225 235 244 238 230 232 242 255 259 257 266 263 264 258 252 259 238 91 63 46 57 66 45 40 17 13 20 15 10
241 244 241 234 238 245 241 259 263 259 256 252 247 246 246 242 249 243 240 228 227 238 225 244 255 251 235 241 253 219 159 102 35 91 70 81 50 25 16 24 15 11 11
279 250 255 248 245 235 237 242 247 266 271 267 257 255 257 254 254 250 247 244 238 255 260 258 260 247 242 226 205 174 116 25 44 61 64 52 38 27 31 15 11 11 10
274 279 272 265 257 253 245 249 260 267 266 269 269 263 257 250 246 241 240 236 238 253 258 255 243 223 225 176 150 130 87 107 99 62 37 48 35 29 16 12 11 11 11